Location: Mary A Oil Field
(38.5606°N, 98.9545°W)
Time: 10:35:48
(UTC+00:00)

Cosmos 1340 Rocket - Pass Details

Date: 20 January 2020
Orbit: 529 x 559 km, 81.2° (Epoch: 16 February)

Event Time Altitude Azimuth Distance (km) Brightness Sun altitude
Rises 00:40:15 0° 354° (N) 2,690 6.2 -11.3°
Reaches altitude 10° 00:42:25 10° 357° (N) 1,798 5.3 -11.7°
Maximum altitude 00:46:21 66° 80° (E) 590 2.7 -12.4°
Drops below altitude 10° 00:50:18 10° 163° (SSE) 1,801 5.4 -13.2°
Sets 00:52:28 0° 166° (SSE) 2,693 6.4 -13.6°
